Weather History for KAPA - December, 2012

Change the Weather History Date:

Sunday, December 2, 2012

  Actual Average Record
Temperature  
Mean Temperature 51 °F -  
Max Temperature 68 °F 44 °F 69 °F (1998)
Min Temperature 34 °F 21 °F 3 °F (2006)
Degree Days  
Heating Degree Days 14    
Month to date heating degree days 31  
Growing Degree Days 4 (Base 50)    
Moisture  
Dew Point 12 °F    
Average Humidity 25    
Maximum Humidity 41    
Minimum Humidity 8    
Precipitation  
Precipitation 0.00 in - - ()
Month to date precipitation 0.00  
Year to date precipitation 13.64  
Sea Level Pressure  
Sea Level Pressure 29.77 in    
Wind  
Wind Speed 9 mph (SSW)    
Max Wind Speed 24 mph    
Max Gust Speed 30 mph    
Visibility 10 miles    
Events      
Averages and records for this station are not official NWS values.
T = Trace of Precipitation, MM = Missing Value Source: NWS Daily Summary

Daily Weather History Graph

Daily Weather History Graph

Search for Another Location

Airport or City:

Trip Planner

Search our weather history database for the weather conditions in past years. The results will help you decide how hot, cold, wet, or windy it might be!

Date:

Astronomy

Dec. 02, 2012 Rise Set
Actual Time 7:02 AM MST 4:35 PM MST
Civil Twilight 6:32 AM MST 5:05 PM MST
Nautical Twilight 5:59 AM MST 5:38 PM MST
Astronomical Twilight 5:26 AM MST 6:11 PM MST
Moon 8:25 PM MST (12/2) 9:53 AM MST (12/2)
Length of Visible Light 10h 33m
Length of Day
9h 33m
Waning Gibbous, 85% of the Moon is Illuminated
Dec 2
Waning Gibbous
Dec 6
Last Quarter
Dec 13
New
Dec 19
First Quarter
Dec 28
Full

Hourly Weather History & Observations

Time (MST) Temp. Windchill Dew Point Humidity Pressure Visibility Wind Dir Wind Speed Gust Speed Precip Events Conditions
12:53 AM 39.0 °F 34.0 °F 16.0 °F 39% 29.94 in 10.0 mi SSW 6.9 mph - N/A   Mostly Cloudy
1:53 AM 39.0 °F 35.7 °F 14.0 °F 36% 29.94 in 10.0 mi ESE 4.6 mph - N/A   Mostly Cloudy
2:53 AM 41.0 °F 37.1 °F 14.0 °F 33% 29.92 in 10.0 mi South 5.8 mph - N/A   Mostly Cloudy
3:53 AM 46.0 °F 39.9 °F 12.9 °F 26% 29.89 in 10.0 mi SW 13.8 mph - N/A   Mostly Cloudy
4:53 AM 42.1 °F 40.2 °F 12.0 °F 29% 29.96 in 10.0 mi East 3.5 mph - N/A   Scattered Clouds
5:53 AM 39.9 °F 34.5 °F 15.1 °F 36% 29.97 in 10.0 mi SW 8.1 mph - N/A   Scattered Clouds
6:53 AM 39.0 °F 34.0 °F 14.0 °F 36% 29.99 in 10.0 mi SW 6.9 mph - N/A   Mostly Cloudy
7:53 AM 39.9 °F 35.8 °F 17.1 °F 40% 29.98 in 10.0 mi South 5.8 mph - N/A   Mostly Cloudy
8:53 AM 50.0 °F - 17.1 °F 27% 29.92 in 10.0 mi SE 3.5 mph - N/A   Mostly Cloudy
9:53 AM 54.0 °F - 15.1 °F 22% 29.88 in 10.0 mi SSW 11.5 mph - N/A   Mostly Cloudy
10:53 AM 57.0 °F - 15.1 °F 19% 29.84 in 10.0 mi SSW 13.8 mph - N/A   Mostly Cloudy
11:53 AM 60.1 °F - 12.9 °F 16% 29.78 in 10.0 mi Variable 3.5 mph - N/A   Mostly Cloudy
12:53 PM 66.0 °F - 8.1 °F 10% 29.70 in 10.0 mi SW 10.4 mph - N/A   Scattered Clouds
1:53 PM 68.0 °F - 5.0 °F 8% 29.65 in 10.0 mi SW 13.8 mph 18.4 mph N/A   Scattered Clouds
2:53 PM 66.9 °F - 6.1 °F 9% 29.63 in 10.0 mi SSW 17.3 mph 21.9 mph N/A   Scattered Clouds
3:53 PM 63.0 °F - 7.0 °F 11% 29.62 in 10.0 mi SSW 16.1 mph 24.2 mph N/A   Scattered Clouds
4:53 PM 57.9 °F - 7.0 °F 13% 29.66 in 10.0 mi SSW 10.4 mph - N/A   Mostly Cloudy
5:53 PM 57.0 °F - 7.0 °F 14% 29.65 in 10.0 mi SSW 17.3 mph - N/A   Mostly Cloudy
6:53 PM 55.9 °F - 9.0 °F 15% 29.64 in 10.0 mi South 17.3 mph 25.3 mph N/A   Mostly Cloudy
7:53 PM 57.0 °F - 10.9 °F 16% 29.62 in 10.0 mi SW 18.4 mph - N/A   Mostly Cloudy
8:53 PM 55.9 °F - 12.9 °F 18% 29.57 in 10.0 mi SSW 12.7 mph 24.2 mph N/A   Mostly Cloudy
9:53 PM 55.0 °F - 15.1 °F 21% 29.57 in 10.0 mi SSW 11.5 mph - N/A   Mostly Cloudy
10:53 PM 53.1 °F - 15.1 °F 22% 29.57 in 10.0 mi WSW 6.9 mph - N/A   Mostly Cloudy
11:53 PM 50.0 °F - 16.0 °F 26% 29.58 in 10.0 mi Calm Calm - N/A   Mostly Cloudy